NULL Weather Reports


Display with metric or nautical units.
time (UTC)temp
F
wind
direction
speed
MPH
gust
MPH
rain 1hr
in
rain 24hr
in
rain mn
in
humidity
%
barometer
mb
20260506130037 48 306 3.0 8.0 0.00 0.25 0.02 68 1019.5
20260506124558 53 155 0.0 0.0 0.00 0.00 0.00 86 1016.8
20260506124535 47 337 1.0 5.0 0.00 0.30 0.02 75 1019.5
20260506123056 54 155 0.0 0.0 0.00 0.00 0.00 86 1016.6
20260506123033 46 354 2.0 4.0 0.00 0.30 0.02 82 1018.9
20260506121554 54 155 0.0 0.0 0.00 0.00 0.00 86 1016.6
20260506121531 45 214 0.0 2.0 0.00 0.30 0.02 86 1018.8
20260506120053 54 155 0.0 0.0 0.00 0.00 0.00 86 1016.7
20260506120032 44 204 0.0 0.0 0.00 0.30 0.02 86 1018.4
20260506114558 54 155 0.0 0.0 0.00 0.00 0.00 86 1016.6
20260506114539 45 359 0.0 0.0 0.00 0.31 0.02 85 1018.0
20260506113057 55 155 0.0 0.0 0.00 0.00 0.00 86 1016.5
20260506113024 45 214 0.0 0.0 0.00 0.31 0.02 85 1017.8
20260506111551 55 155 0.0 0.0 0.00 0.00 0.00 87 1016.5
20260506111523 46 359 0.0 1.0 0.00 0.31 0.02 85 1017.9
20260506110046 55 155 0.0 0.0 0.00 0.00 0.00 87 1016.6
20260506110024 46 216 0.0 1.0 0.00 0.31 0.02 84 1017.9
20260506104553 56 155 0.0 0.0 0.00 0.01 0.00 87 1016.7
20260506104522 46 213 1.0 4.0 0.00 0.31 0.02 83 1018.1
20260506103043 56 155 0.0 0.0 0.00 0.01 0.00 87 1016.6
20260506103021 46 218 1.0 4.0 0.00 0.31 0.02 82 1018.0
20260506101549 56 155 0.0 0.0 0.00 0.01 0.00 88 1016.7
20260506101537 46 246 2.0 4.0 0.00 0.31 0.02 85 1018.0
20260506100040 56 155 0.0 0.0 0.00 0.01 0.00 88 1016.6
20260506100018 46 291 0.0 5.0 0.00 0.31 0.02 86 1017.6
20260506094539 57 155 0.0 0.0 0.00 0.11 0.00 88 1016.7
20260506094517 46 197 3.0 6.0 0.00 0.31 0.02 85 1017.0
20260506093038 57 155 0.0 0.0 0.00 0.11 0.00 89 1016.7
20260506093015 46 205 1.0 3.0 0.00 0.31 0.02 85 1017.1
20260506091537 57 155 0.0 0.0 0.00 0.11 0.00 89 1016.7
20260506091519 46 216 0.0 4.0 0.00 0.31 0.02 85 1017.2
20260506090036 57 155 0.0 0.0 0.00 0.11 0.00 88 1016.9
20260506090012 46 229 0.0 1.0 0.00 0.31 0.02 85 1017.2
20260506084540 57 155 0.0 0.0 0.00 0.11 0.00 87 1016.8
20260506084518 46 229 1.0 2.0 0.00 0.31 0.02 85 1017.2
20260506083033 57 155 0.0 0.0 0.00 0.11 0.00 87 1016.9
20260506083010 46 229 1.0 3.0 0.00 0.31 0.02 85 1017.2
20260506081530 57 155 0.0 0.0 0.00 0.11 0.00 87 1017.0
20260506081509 46 212 0.0 0.0 0.00 0.31 0.02 85 1017.0
20260506073025 58 154 0.0 0.0 0.00 0.11 0.00 85 1017.0
20260506073007 46 214 2.0 3.0 0.00 0.32 0.02 84 1016.3
20260506071523 58 154 0.0 0.0 0.00 0.11 0.00 85 1017.1
20260506071513 46 203 0.0 1.0 0.00 0.32 0.02 82 1016.1
20260506061557 48 191 0.0 2.0 0.01 0.32 0.02 75 1016.2
20260506061518 59 154 0.0 0.0 0.00 0.11 0.11 83 1016.7
20260506044542 51 314 11.0 22.0 0.00 0.28 0.28 64 1017.0
20260506044509 61 159 0.0 0.0 0.00 0.11 0.11 79 1015.8
20260506043039 51 324 2.0 11.0 0.00 0.28 0.28 62 1016.5
20260506043009 61 144 0.0 0.0 0.00 0.11 0.11 78 1015.6
20260506041548 50 213 2.0 5.0 0.00 0.28 0.28 75 1016.3
20260506041508 61 147 0.0 0.0 0.00 0.11 0.11 77 1015.6
20260506040038 51 268 1.0 3.0 0.00 0.28 0.28 72 1015.8
20260506040005 61 148 0.0 0.0 0.00 0.11 0.11 76 1015.3
20260506034535 51 232 1.0 3.0 0.00 0.28 0.28 68 1015.8
20260506034503 61 150 0.0 5.0 0.00 0.11 0.11 77 1015.1
20260506033033 51 311 0.0 0.0 0.00 0.28 0.28 64 1015.3
20260506033002 61 146 1.0 5.0 0.00 0.11 0.11 75 1015.0
20260506031530 51 310 0.0 3.0 0.00 0.28 0.28 62 1014.7
20260506031501 62 157 0.0 5.0 0.00 0.11 0.11 75 1014.7
20260506030032 51 320 0.0 3.0 0.00 0.28 0.28 64 1014.5
20260506024601 63 143 0.0 0.0 0.00 0.11 0.11 70 1014.1
20260506024530 52 8 1.0 5.0 0.00 0.28 0.28 63 1014.3
20260506023101 63 150 0.0 1.0 0.00 0.11 0.11 68 1013.9
20260506023026 52 347 3.0 9.0 0.00 0.28 0.28 60 1014.2
20260506021701 64 142 0.0 0.0 0.00 0.11 0.11 66 1013.9
20260506021525 52 60 4.0 10.0 0.00 0.28 0.28 60 1014.1
20260506020058 64 159 0.0 0.0 0.00 0.11 0.11 67 1013.7
20260506020025 53 338 5.0 12.0 0.00 0.28 0.28 58 1013.8
20260506014558 65 154 0.0 2.0 0.00 0.11 0.11 64 1013.6
20260506014532 52 354 2.0 6.0 0.00 0.28 0.28 61 1013.5
20260506013104 65 140 0.0 7.0 0.00 0.11 0.11 64 1013.3
20260506013028 52 325 1.0 4.0 0.00 0.28 0.28 60 1013.4
20260506011556 66 207 0.0 7.0 0.00 0.11 0.11 64 1013.4
20260506011525 53 339 1.0 4.0 0.00 0.28 0.28 62 1013.1
20260506010115 66 157 0.0 1.0 0.00 0.11 0.11 63 1013.4
20260506010027 53 339 3.0 6.0 0.00 0.28 0.28 57 1012.9
20260506004555 66 150 0.0 1.0 0.00 0.11 0.11 60 1013.4
20260506004534 54 337 3.0 8.0 0.00 0.28 0.28 54 1012.9
20260506003056 66 162 0.0 1.0 0.00 0.11 0.11 59 1013.3
20260506003020 54 337 6.0 10.0 0.00 0.28 0.28 54 1012.8
20260506001558 67 156 0.0 7.0 0.00 0.11 0.11 56 1013.1
20260506001520 54 347 4.0 8.0 0.00 0.28 0.28 55 1012.9
20260506000055 68 238 0.0 0.0 0.00 0.11 0.11 56 1013.2
20260506000023 54 354 5.0 11.0 0.00 0.28 0.28 61 1012.5
20260505234607 68 167 0.0 0.0 0.00 0.11 0.11 51 1013.3
20260505234520 54 315 4.0 8.0 0.00 0.28 0.28 71 1012.6
20260505233052 68 137 0.0 5.0 0.00 0.11 0.11 51 1013.4
20260505233017 54 280 1.0 3.0 0.00 0.28 0.28 73 1012.6
20260505231553 67 152 0.0 3.0 0.00 0.11 0.11 55 1013.3
20260505231517 55 224 0.0 4.0 0.00 0.28 0.28 72 1012.7
20260505230049 67 142 0.0 0.0 0.00 0.11 0.11 55 1013.4
20260505230017 55 249 2.0 4.0 0.00 0.28 0.28 72 1012.8
20260505224549 68 160 0.0 10.0 0.00 0.11 0.11 55 1013.5
20260505224524 55 212 1.0 3.0 0.00 0.28 0.28 70 1012.4
20260505223049 68 184 0.0 1.0 0.00 0.11 0.11 55 1013.6
20260505223018 54 212 0.0 4.0 0.00 0.28 0.28 71 1012.4
20260505221548 68 148 0.0 5.0 0.00 0.11 0.11 56 1013.8
20260505221515 54 257 0.0 3.0 0.00 0.28 0.28 71 1012.6
20260505220049 68 156 0.0 1.0 0.00 0.11 0.11 53 1013.8
20260505220026 54 203 1.0 4.0 0.00 0.28 0.28 71 1012.5
20260505214603 68 224 0.0 10.0 0.00 0.11 0.11 52 1013.9
20260505214521 53 319 0.0 4.0 0.00 0.28 0.28 73 1012.7
20260505213057 69 151 0.0 9.0 0.00 0.11 0.11 52 1014.0
20260505213013 53 319 4.0 8.0 0.00 0.28 0.28 71 1012.6
20260505211545 68 167 0.0 6.0 0.00 0.11 0.11 55 1014.0
20260505211513 53 9 0.0 2.0 0.00 0.28 0.28 73 1012.7
20260505210047 68 120 0.0 11.0 0.00 0.11 0.11 53 1014.1
20260505210012 53 45 1.0 3.0 0.00 0.28 0.28 71 1012.8
20260505204553 68 163 3.0 16.0 0.00 0.11 0.11 56 1014.1
20260505204523 53 17 1.0 4.0 0.00 0.28 0.28 71 1012.9
20260505203046 68 135 0.0 0.0 0.00 0.11 0.11 58 1014.1
20260505203011 52 314 3.0 6.0 0.00 0.28 0.28 72 1013.1
20260505201539 68 159 0.0 1.0 0.00 0.11 0.11 59 1014.1
20260505201510 52 33 2.0 5.0 0.00 0.28 0.28 73 1013.0
20260505200037 67 131 0.0 0.0 0.00 0.11 0.11 59 1014.3
20260505200011 52 31 0.0 2.0 0.00 0.28 0.28 74 1013.1
20260505194543 67 157 0.0 0.0 0.00 0.11 0.11 60 1014.3
20260505194510 51 338 2.0 5.0 0.00 0.28 0.28 74 1013.2
20260505193033 66 168 0.0 1.0 0.00 0.11 0.11 59 1014.6
20260505191529 65 143 0.0 1.0 0.00 0.11 0.11 63 1014.7
20260505191509 51 9 2.0 4.0 0.00 0.28 0.28 77 1013.2
20260505190129 64 148 0.0 1.0 0.00 0.11 0.11 66 1014.7
20260505190024 51 31 2.0 6.0 0.00 0.28 0.28 74 1013.4
20260505184527 65 155 0.0 1.0 0.00 0.11 0.11 65 1014.8
20260505184508 51 13 2.0 5.0 0.00 0.28 0.28 75 1013.3
20260505183026 65 149 0.0 0.0 0.00 0.11 0.11 65 1014.7
20260505183015 50 106 1.0 4.0 0.00 0.28 0.28 75 1013.3
20260505181524 65 134 0.0 0.0 0.00 0.11 0.11 65 1014.6
20260505181510 50 123 2.0 6.0 0.00 0.28 0.28 77 1013.5
20260505180043 65 164 0.0 1.0 0.00 0.11 0.11 69 1014.5
20260505180006 50 136 2.0 6.0 0.00 0.28 0.28 80 1013.3
20260505174542 64 158 0.0 0.0 0.00 0.11 0.11 70 1014.4
20260505174506 49 144 2.0 6.0 0.00 0.28 0.28 81 1013.4
20260505173022 64 151 0.0 0.0 0.00 0.11 0.11 71 1014.3
20260505173004 49 41 2.0 5.0 0.00 0.28 0.28 82 1013.5
20260505171523 64 136 0.0 0.0 0.00 0.11 0.11 73 1014.1
20260505171512 49 101 1.0 3.0 0.00 0.28 0.28 84 1013.5
20260505170013 63 151 0.0 0.0 0.00 0.11 0.11 75 1014.1
20260505170010 49 56 3.0 5.0 0.00 0.28 0.28 83 1013.7
20260505164511 61 144 0.0 0.0 0.00 0.11 0.11 81 1014.0
20260505164503 49 32 3.0 7.0 0.01 0.28 0.28 82 1013.8
20260505163007 60 141 0.0 0.0 0.00 0.11 0.11 87 1013.9
20260505163002 48 23 3.0 6.0 0.01 0.28 0.28 81 1013.9
20260505161504 58 143 0.0 0.0 0.00 0.11 0.11 93 1013.8
20260505161502 49 4 2.0 4.0 0.01 0.28 0.28 85 1013.7
20260505153110 48 66 1.0 4.0 0.06 0.28 0.28 84 1013.5
20260505153101 56 144 0.0 0.0 0.00 0.11 0.11 96 1013.8
20260505151603 56 143 0.0 0.0 0.00 0.11 0.11 97 1013.7
20260505151558 48 26 2.0 4.0 0.07 0.28 0.28 85 1013.6
20260505151500 56 169 0.0 0.0 0.00 0.11 0.11 97 1013.7
20260505150115 48 354 2.0 5.0 0.09 0.28 0.28 86 1013.3
20260505150105 56 150 0.0 0.0 0.00 0.11 0.11 97 1013.6
20260505140107 54 150 0.0 0.0 0.00 0.11 0.11 96 1013.1